GFSGBSN_925_temp_243.txt.gz
Temp
6 6 6 6 6 6 6 6 6 6 6 6 6 6 6 6 6 6 7 7 7 7 7 7 7 7 7 8 10 17 16 13 14 14 16 18 18 19 19 21 23 24 26 27 28 29 28
6 6 6 6 6 6 6 6 6 5 5 5 5 5 5 6 6 6 6 7 7 8 8 7 7 7 7 6 11 13 12 11 12 13 14 14 19 20 21 22 22 25 26 27 28 28 28
6 6 6 6 5 5 5 5 5 5 5 5 5 5 5 5 5 5 6 7 7 8 8 7 6 7 7 7 11 10 10 10 10 11 14 15 16 19 21 22 24 24 24 25 26 27 28
6 6 6 5 5 5 5 5 5 5 5 5 5 5 5 5 5 5 6 7 7 8 8 7 6 7 7 9 10 9 10 9 10 11 13 15 15 16 20 22 23 22 23 23 25 26 28
6 5 5 5 5 5 5 5 5 5 5 5 5 5 5 4 5 5 6 7 9 10 9 7 6 7 8 10 10 10 10 9 10 12 14 16 16 16 20 19 19 21 21 22 24 26 27
5 5 5 5 5 5 5 5 5 5 4 4 5 5 4 4 5 6 6 8 11 10 8 8 8 7 8 10 12 10 10 10 11 12 12 15 16 17 19 19 17 19 20 23 23 26 27
5 5 5 5 5 5 5 5 5 4 4 4 4 4 4 4 5 6 6 7 9 9 10 9 10 8 10 12 12 11 10 10 11 11 10 13 13 17 19 20 21 22 22 23 24 26 26
5 5 5 5 5 5 5 5 4 4 4 4 4 4 4 4 6 7 7 7 8 8 7 10 10 10 11 12 10 12 11 10 10 10 11 11 11 14 20 21 21 22 22 22 24 26 26
4 4 4 4 5 5 5 5 4 4 4 4 4 4 4 5 7 7 7 8 9 9 6 9 11 11 12 13 11 11 12 10 9 9 9 10 11 13 17 20 20 21 22 22 23 26 26
4 4 4 4 4 4 4 4 4 4 4 4 4 4 4 4 7 6 6 8 9 9 5 9 13 15 14 13 12 15 14 11 10 9 9 10 11 13 14 16 21 20 23 24 24 24 24
4 4 4 4 4 4 4 4 4 4 4 4 4 4 4 4 4 5 7 8 8 8 3 13 13 13 13 13 14 12 13 10 9 10 10 11 13 13 13 15 19 21 23 23 24 23 24
4 4 4 4 4 4 4 4 4 4 4 4 4 4 4 4 4 6 7 8 8 5 3 12 13 12 13 13 12 12 10 11 10 8 9 8 10 10 13 16 17 19 20 21 23 22 21
4 4 4 4 4 4 4 4 3 3 3 4 4 5 5 4 4 7 7 6 2 2 11 12 12 12 12 11 9 9 9 8 8 8 8 12 10 10 11 11 15 16 15 16 18 18 20
4 4 3 4 4 4 4 4 3 3 3 3 4 5 6 6 7 7 7 2 1 7 9 12 12 11 11 9 10 9 8 9 6 7 9 10 11 12 12 11 12 14 14 15 17 18 17
4 4 3 3 3 3 3 3 3 3 3 3 4 5 5 7 8 8 4 2 2 8 11 10 10 10 10 12 11 10 9 9 7 7 7 7 11 15 14 14 13 12 13 14 15 16 18
4 3 3 3 3 3 3 3 3 3 3 3 3 4 6 8 8 7 3 3 6 9 9 10 8 10 9 10 11 11 10 9 7 6 6 8 7 13 14 14 13 14 15 13 13 16 16
3 3 3 3 3 3 3 3 3 3 3 3 3 3 8 8 8 3 2 3 8 10 11 9 7 7 8 9 10 11 10 8 9 7 8 7 7 12 14 13 14 13 13 13 12 14 16
3 4 3 3 3 3 3 3 3 3 3 4 4 2 8 8 2 3 -0 7 9 9 10 10 9 8 8 9 9 10 10 9 10 11 9 7 6 8 11 11 12 14 12 12 13 14 16
3 4 4 3 3 3 3 3 3 3 3 3 1 2 7 8 -0 -0 6 7 8 9 9 8 9 9 8 8 8 10 11 10 10 10 9 9 7 7 12 12 9 9 8 8 9 11 14
4 3 3 3 3 3 3 3 3 3 3 3 1 -0 1 3 4 5 4 5 6 8 9 9 9 10 9 7 8 8 9 11 10 10 10 9 8 7 7 6 8 8 8 8 9 11 12
3 3 3 3 3 3 3 3 3 3 3 3 1 1 3 -1 0 4 5 6 5 6 8 9 8 8 8 6 6 7 8 8 10 11 10 8 6 7 8 8 8 8 8 9 9 9 10
3 3 3 3 3 3 3 3 3 3 3 2 2 -0 2 2 4 4 5 4 5 6 7 7 6 8 6 6 7 5 7 7 7 10 7 8 7 8 8 10 10 8 10 9 10 11 10
3 3 3 3 3 2 3 3 3 3 2 2 2 4 3 3 3 2 3 5 6 7 7 8 8 7 5 5 7 9 9 9 7 7 7 7 6 7 8 9 9 7 9 11 12 13 13
3 3 3 3 2 2 3 3 3 3 2 2 3 3 2 2 2 3 5 6 6 6 5 7 7 6 8 9 8 8 8 9 9 9 9 7 6 6 5 8 6 11 14 14 12 13 13
3 3 3 3 2 2 3 3 3 2 2 2 2 2 2 2 2 4 5 5 6 6 5 6 7 7 7 6 2 2 2 3 5 8 9 9 7 4 5 7 9 11 13 14 14 13 15
3 3 3 2 2 2 2 2 3 2 2 2 2 2 2 2 2 5 3 4 3 3 3 5 7 6 5 1 -1 -0 1 4 5 8 11 10 9 7 5 5 6 12 15 16 14 10 15
2 3 3 2 2 2 2 2 2 2 2 2 2 3 2 2 2 3 2 2 3 3 3 3 4 3 5 1 2 3 5 8 6 6 7 7 6 7 7 7 8 13 14 15 12 11 15
2 2 2 2 2 2 2 2 2 2 2 2 2 2 2 1 2 3 3 2 3 2 2 3 2 1 0 2 -0 1 3 6 6 8 8 8 8 7 7 7 6 13 14 13 13 13 14
2 2 2 2 2 2 2 2 2 2 2 2 1 2 2 1 1 3 3 3 3 4 3 3 3 3 2 3 3 4 5 5 6 6 9 8 9 8 9 8 11 12 14 14 13 13 14

GFSGBSN_925_temp_246.txt.gz
Temp
6 6 6 6 6 6 6 6 5 5 5 5 5 5 5 5 6 6 6 7 8 8 8 7 7 6 7 7 8 15 13 13 12 12 13 14 15 16 16 18 20 20 21 23 24 25 25
6 6 6 5 5 5 5 5 5 5 5 5 5 5 5 5 5 5 5 6 7 7 8 8 6 6 6 6 10 13 12 12 11 10 12 14 15 16 17 18 18 21 22 22 24 25 25
6 6 5 5 5 5 5 5 5 5 5 5 5 5 5 5 5 5 5 6 7 8 8 7 6 6 6 6 11 11 10 10 10 9 11 13 14 14 14 17 20 20 20 22 23 24 24
6 5 5 5 5 5 5 5 5 5 5 5 5 5 4 4 4 5 6 7 9 9 8 6 7 6 7 9 10 9 10 10 11 11 11 12 13 14 14 15 17 20 20 19 23 23 24
5 5 5 5 5 5 5 5 5 5 4 4 4 4 4 4 5 6 7 9 10 10 8 6 6 6 6 9 9 11 10 9 10 12 12 13 15 14 14 14 15 17 18 20 21 24 24
5 5 5 5 5 5 5 5 5 4 4 4 4 4 4 4 5 6 7 9 9 10 9 7 7 6 8 9 10 11 10 10 10 11 12 12 13 13 14 14 15 16 18 20 21 23 23
5 5 5 5 5 5 5 5 5 4 4 4 4 4 4 4 6 6 7 8 8 7 8 8 9 8 10 11 11 11 10 10 10 10 9 11 12 13 14 15 16 18 19 20 22 22 22
5 5 4 4 5 5 5 5 5 4 4 4 4 4 4 4 6 7 7 7 8 7 6 9 9 9 9 10 9 10 11 9 9 9 10 10 10 11 13 15 15 17 18 19 21 22 23
4 4 4 4 4 4 4 4 4 4 4 4 4 4 4 5 7 7 6 7 7 8 5 8 9 10 10 11 9 10 10 10 9 9 9 8 11 13 10 11 13 15 18 19 20 22 23
4 4 4 4 4 4 4 4 4 4 4 4 4 4 4 4 6 5 6 7 8 7 2 7 12 13 12 12 10 13 12 11 9 9 9 9 11 11 11 10 11 12 19 20 20 21 21
4 4 4 4 4 4 4 4 4 4 4 4 4 4 4 4 3 4 7 7 7 7 -0 11 13 14 15 12 12 10 10 10 10 10 9 9 10 11 11 11 12 11 16 20 20 20 21
4 4 4 4 4 4 4 4 4 3 3 3 3 4 4 4 4 7 7 6 6 1 1 11 13 11 11 11 10 11 9 9 9 8 9 8 11 8 9 14 14 12 13 15 17 20 19
4 4 4 4 4 4 4 4 4 3 3 3 3 4 4 4 4 7 6 5 1 -0 8 10 10 10 11 9 11 10 10 8 8 8 6 9 9 9 10 11 14 14 13 15 15 16 17
4 4 4 3 4 4 3 3 3 3 3 3 3 4 5 5 6 6 6 0 -0 4 8 10 9 9 10 10 11 10 9 8 7 7 6 8 8 9 10 9 13 14 13 14 16 16 17
4 3 4 4 3 3 3 3 3 3 3 3 3 4 4 7 7 6 1 -2 -0 5 9 8 8 8 9 9 9 9 7 9 7 7 6 6 7 12 12 12 12 12 14 14 13 13 16
3 3 3 3 3 3 3 3 3 3 3 3 3 3 4 7 7 6 3 2 4 8 8 9 6 8 7 8 7 9 7 8 7 6 5 6 7 9 9 13 13 13 13 13 13 14 15
4 4 4 3 3 3 3 3 3 3 3 3 3 1 7 7 7 2 -0 -0 6 9 8 8 7 7 8 6 6 8 9 9 7 8 6 7 7 10 9 11 12 11 12 12 12 13 15
4 4 4 4 3 3 3 3 3 3 3 4 2 -1 7 6 -0 2 -2 5 8 7 8 8 7 8 8 8 7 7 9 10 10 9 7 6 2 7 10 9 8 13 12 13 13 13 14
3 4 4 4 4 3 3 3 3 3 3 3 -1 0 6 6 -2 -4 4 6 6 7 7 8 7 8 8 8 7 7 8 9 10 9 8 8 4 3 10 8 7 8 8 8 9 10 14
4 4 4 3 3 4 3 3 3 3 3 3 -1 0 -2 -0 1 4 4 4 5 7 7 8 7 7 7 6 7 7 7 9 8 9 10 9 6 4 6 7 6 7 8 8 8 11 13
4 4 4 3 3 3 3 3 3 3 3 3 1 -0 0 -2 -1 3 3 4 4 4 6 7 6 6 5 4 5 6 7 7 8 8 7 7 6 4 6 8 7 8 8 8 8 9 10
3 3 3 3 3 3 3 3 3 3 3 2 -2 -1 -1 -1 3 3 3 3 4 5 5 5 5 6 5 3 5 5 6 5 6 7 7 6 6 7 7 9 10 8 9 9 9 9 9
3 3 3 3 3 3 3 3 3 3 2 1 2 2 0 1 2 2 1 4 5 5 6 6 5 5 4 5 6 6 6 6 6 6 7 6 5 5 5 9 8 7 9 10 11 11 11
3 3 3 3 3 3 3 3 3 3 2 2 2 1 2 1 1 2 4 4 4 5 4 5 5 5 6 6 5 6 6 7 7 7 8 6 4 6 6 6 3 10 12 13 11 11 13
3 3 3 3 3 3 3 3 3 3 3 2 2 1 2 2 1 2 3 4 4 3 3 3 5 6 5 5 1 -2 -0 1 5 7 8 7 5 3 4 5 8 10 12 13 12 12 13
3 2 3 3 3 2 3 2 2 3 3 2 2 2 1 1 1 3 2 3 1 1 1 3 5 5 5 -1 -2 -2 -1 2 4 7 9 8 7 6 3 4 3 10 13 14 13 11 13
3 2 3 3 3 3 2 2 3 3 3 2 2 2 1 1 1 2 2 1 2 1 0 1 2 2 4 -6 -4 -0 2 6 5 5 6 6 6 5 6 6 7 10 12 13 11 11 13
3 3 2 2 3 3 2 2 2 2 2 2 2 2 1 0 1 2 3 1 1 -0 1 0 1 -1 -4 1 -1 -1 2 4 4 6 7 6 5 2 4 5 7 11 12 10 11 12 14
2 3 2 2 2 2 2 2 2 2 2 2 2 2 2 0 -1 2 2 2 2 3 1 1 2 2 -1 -2 -1 1 2 3 5 4 8 6 6 6 6 6 8 9 9 10 10 11 13

GFSGBSN_925_temp_249.txt.gz
Temp
6 6 5 5 5 6 6 5 5 5 5 5 5 5 5 5 5 5 6 7 8 7 7 6 6 6 7 6 8 14 13 12 11 11 11 13 14 15 14 15 17 17 19 21 21 22 22
6 6 5 5 5 5 5 5 5 5 5 5 5 5 5 5 5 5 6 8 8 8 9 8 6 6 6 5 10 11 11 11 11 10 11 12 14 14 13 15 16 18 18 19 20 21 22
5 5 5 5 5 5 5 5 5 5 5 4 4 4 4 4 4 5 5 8 8 8 8 7 5 6 7 7 11 10 9 10 10 9 9 11 13 14 14 13 15 17 16 18 20 20 21
5 5 5 5 5 5 5 5 5 5 4 4 4 4 4 4 4 5 7 8 9 9 9 9 6 6 6 8 9 9 9 10 11 11 10 11 12 13 14 14 15 16 17 17 20 20 21
5 5 5 5 5 5 5 5 5 4 4 4 4 4 4 4 5 6 7 8 9 9 9 7 6 6 6 9 9 10 10 9 10 11 11 12 12 12 14 14 14 15 17 17 19 21 21
5 5 5 5 5 5 5 5 5 4 4 4 4 4 4 4 5 6 8 9 9 9 7 7 7 6 8 9 10 10 10 10 9 10 11 11 10 12 13 13 14 14 15 17 19 21 21
5 5 4 5 5 5 5 5 5 4 4 4 4 4 4 4 5 6 8 8 7 6 7 7 8 8 9 10 10 10 10 10 9 9 9 10 9 11 12 14 15 16 16 17 19 20 21
4 4 4 4 4 5 5 4 4 4 4 4 4 4 4 5 6 7 7 6 6 6 5 8 8 7 8 9 8 8 10 9 8 8 9 8 7 10 12 13 13 15 15 16 18 19 21
4 4 4 4 4 4 4 4 4 4 4 4 4 4 4 5 6 6 5 7 6 6 4 6 9 9 10 9 8 8 9 9 8 8 8 8 9 12 11 12 11 11 14 15 16 19 20
4 4 4 4 4 4 4 4 4 4 4 4 4 4 4 4 6 5 6 6 7 6 1 7 10 11 12 11 10 11 10 10 9 8 8 8 10 10 9 9 11 10 12 14 16 16 16
4 4 4 4 4 4 4 4 4 4 3 3 3 3 3 3 4 4 6 6 7 6 -0 10 12 13 11 11 11 11 10 8 7 7 9 9 10 10 10 11 11 11 13 13 16 16 17
5 4 4 4 4 4 4 4 4 3 3 3 3 3 3 3 3 6 6 6 6 -0 -0 9 11 10 9 11 10 10 10 9 9 8 8 8 10 10 10 11 12 13 11 12 12 14 15
4 4 4 4 4 4 4 4 3 3 3 3 3 3 3 3 4 6 6 4 -0 -1 7 9 9 9 9 9 10 10 9 7 6 6 3 8 8 9 10 9 10 9 10 11 13 14 15
4 4 4 4 4 4 3 3 3 3 3 3 3 4 5 4 4 4 5 -0 -1 4 6 9 8 8 9 8 8 9 8 6 7 7 7 6 6 9 10 9 11 11 10 12 13 15 16
3 4 3 3 4 3 3 3 3 3 3 3 3 4 5 6 6 5 -0 -3 -0 5 8 7 7 8 8 8 8 7 6 7 6 6 6 5 5 11 10 11 10 12 11 13 13 13 15
4 3 4 4 4 3 3 3 3 3 3 3 3 3 5 6 6 6 1 1 4 7 8 7 6 7 6 6 5 6 6 7 7 7 5 6 7 10 10 10 11 10 11 12 12 13 14
4 4 4 4 4 4 3 3 3 3 3 3 3 1 6 6 6 1 -1 -1 5 7 7 7 6 6 7 6 7 7 8 8 7 7 5 6 7 8 9 8 8 8 11 10 11 13 15
4 4 4 4 4 4 4 3 3 3 3 3 2 -2 5 6 -1 -1 0 3 7 6 7 7 7 7 7 6 6 7 6 7 8 7 7 6 6 6 9 9 7 7 8 8 12 12 13
4 4 4 4 4 4 4 3 3 3 3 3 -2 -1 4 5 -3 -5 2 5 6 5 6 6 6 7 7 6 5 6 7 8 8 7 7 7 6 6 9 8 7 7 7 7 7 9 13
4 4 4 4 4 4 4 3 3 3 3 3 -2 -1 -2 -1 -0 3 3 4 4 6 5 6 6 6 6 5 6 5 6 7 7 7 8 7 6 6 7 6 6 6 7 7 7 8 9
4 4 4 4 4 4 4 3 3 3 3 3 -2 -1 -1 -3 -1 2 3 3 4 4 5 6 5 5 5 4 5 5 6 6 7 8 7 6 5 5 6 7 8 8 7 8 7 8 8
3 3 3 4 4 4 4 3 3 3 3 3 -2 -1 -2 0 2 2 2 2 4 4 4 5 4 5 4 2 3 2 4 5 5 6 6 6 5 6 6 8 9 8 9 10 9 9 8
4 3 3 3 3 3 3 3 3 3 2 2 1 1 0 -0 0 1 1 3 4 4 4 5 4 4 3 4 5 4 5 5 5 5 5 5 4 5 4 6 7 6 10 10 10 9 9
3 3 3 3 3 3 3 3 3 3 2 2 1 1 1 -0 1 2 3 3 4 4 3 4 3 3 5 5 4 4 4 5 5 5 6 5 5 4 4 5 1 8 11 11 11 11 11
3 3 3 3 3 3 3 3 3 3 3 2 1 1 1 0 1 2 3 3 3 3 3 3 3 4 4 4 2 -2 -1 -0 2 5 6 6 5 0 1 3 7 9 12 11 11 11 12
3 3 3 3 3 3 3 3 3 2 3 2 1 1 1 1 0 2 2 2 1 0 1 2 3 4 3 -1 -5 -3 -2 2 3 5 8 7 6 5 0 2 2 9 11 11 11 9 12
2 2 3 3 3 3 3 3 2 2 3 2 2 1 1 0 1 1 1 -0 1 0 0 -1 1 1 2 -7 -3 -2 1 6 5 4 4 5 5 4 5 3 6 9 9 11 9 8 9
2 2 2 3 3 3 3 3 2 2 3 2 2 1 1 0 1 2 2 1 1 0 1 -1 -0 -2 -3 0 -1 2 2 4 4 6 6 6 2 3 4 3 4 8 8 8 7 9 9
2 2 2 2 2 2 2 2 2 3 2 2 2 1 1 0 1 1 1 2 2 2 -1 -2 0 1 1 -3 -4 -3 -2 1 4 3 7 5 6 6 5 5 7 8 9 9 8 8 9

GFSGBSN_925_temp_252.txt.gz
Temp
6 5 5 5 5 5 5 5 5 5 5 5 5 5 5 5 5 5 5 6 6 7 7 6 5 6 7 5 7 11 11 12 12 12 11 12 13 13 13 13 15 16 18 19 19 20 20
5 5 5 5 5 5 5 5 5 5 4 4 5 4 4 4 5 6 6 7 8 8 8 8 5 5 6 6 10 10 10 10 10 10 10 11 12 13 13 13 14 15 16 17 18 19 19
5 5 5 5 5 5 5 5 5 5 4 4 4 4 4 4 5 5 7 8 8 9 9 8 6 5 6 6 10 9 9 9 10 10 9 11 11 11 12 13 14 14 14 15 17 18 17
6 5 5 5 5 5 5 5 5 4 4 4 4 4 4 4 5 6 7 8 9 8 9 8 6 6 5 9 9 10 10 10 11 11 10 11 11 10 11 13 14 14 14 15 19 18 18
5 5 5 5 5 5 5 5 5 5 4 4 4 4 4 4 5 6 8 9 9 8 8 8 7 6 6 9 10 10 10 9 10 10 11 11 11 10 12 11 12 14 14 16 17 19 18
5 5 5 5 5 5 5 5 5 5 4 4 4 4 4 4 5 6 8 9 9 8 8 7 7 6 8 9 10 10 10 10 9 9 10 11 9 10 9 11 12 13 14 15 15 18 18
5 4 4 4 4 5 5 5 5 5 4 4 4 4 4 4 6 7 8 8 5 5 6 6 7 7 8 9 9 10 9 9 9 8 8 9 8 9 9 12 12 14 14 15 16 17 18
5 4 4 4 4 4 4 4 4 4 4 4 4 4 4 5 6 6 7 5 5 4 4 6 6 7 8 8 7 9 9 8 8 7 8 8 6 9 10 11 11 12 12 13 16 16 17
4 4 4 4 4 4 4 4 4 4 4 4 4 4 4 5 6 6 5 5 5 5 4 5 8 8 9 8 8 8 9 8 8 7 7 7 9 11 10 10 10 11 12 14 14 15 16
4 4 4 4 4 4 4 4 4 4 4 3 3 3 3 4 6 4 6 6 6 6 1 7 10 11 11 10 9 10 9 9 9 7 8 7 9 9 9 8 9 8 12 13 12 12 13
4 4 5 4 4 4 4 4 4 4 3 3 3 3 3 3 3 4 6 6 6 5 1 9 10 12 10 10 10 10 9 9 8 7 8 8 9 8 8 9 10 9 11 11 12 12 10
5 5 5 4 4 4 4 4 4 3 3 3 3 3 3 3 3 5 5 6 6 -1 0 8 10 8 8 8 10 9 9 9 8 8 8 8 9 8 9 10 11 11 10 10 11 11 11
4 4 4 4 4 4 4 4 4 3 3 3 3 4 3 3 4 5 5 4 -0 -1 6 8 7 7 7 8 8 8 8 7 6 5 3 8 8 8 9 9 10 9 9 7 7 10 11
3 3 4 4 4 4 4 3 3 3 3 3 3 4 4 4 4 4 4 -0 -1 4 6 8 7 7 7 7 7 7 5 4 7 5 7 5 5 9 9 9 9 10 8 9 5 10 13
4 3 3 4 4 4 4 3 3 3 3 3 4 5 6 5 5 4 -0 -3 -0 5 7 6 6 7 7 7 6 6 4 6 6 6 6 5 5 9 9 10 9 9 9 11 10 11 11
4 4 4 4 4 4 4 3 3 3 3 3 4 3 5 5 5 5 -1 0 4 5 6 6 5 7 5 5 5 6 5 5 6 7 5 6 6 9 9 10 8 8 9 9 10 10 8
4 4 4 4 4 4 4 4 4 3 3 3 3 1 4 5 5 -0 -1 -2 4 6 7 6 6 6 5 5 6 6 7 7 7 6 6 6 6 8 9 8 7 8 8 8 9 11 9
4 4 4 4 4 4 4 4 4 3 3 4 1 -2 4 5 -1 -4 0 3 6 6 6 6 6 6 6 5 5 6 6 6 7 7 4 6 7 6 8 9 7 8 8 7 7 8 8
4 4 4 4 4 4 4 4 4 4 3 3 -3 -1 4 5 -3 -5 1 3 5 5 5 5 6 6 6 5 4 5 6 7 7 6 5 6 6 6 8 7 6 6 6 6 7 8 9
4 4 4 4 4 4 4 4 3 3 3 3 -3 -3 -3 -2 -1 2 3 3 4 5 4 5 5 5 5 4 5 5 5 6 6 6 8 6 5 6 5 5 6 6 7 6 6 6 8
3 3 4 4 4 4 4 4 3 3 3 3 -4 -5 -2 -4 -3 2 3 3 3 4 4 5 5 5 4 3 4 4 5 5 6 6 6 6 0 4 4 6 6 7 7 7 7 8 7
3 3 3 3 4 4 4 4 4 3 3 2 -4 -3 -2 -0 2 2 2 1 3 4 4 4 4 4 3 2 2 2 3 3 4 5 4 3 2 4 4 7 7 7 8 8 9 9 8
3 3 4 4 3 4 3 4 3 3 2 2 1 1 -1 -1 -0 -2 -0 3 4 4 4 4 4 3 3 3 3 3 4 4 4 4 4 3 1 2 3 6 6 4 8 9 9 9 9
3 3 3 3 3 4 4 3 3 3 2 2 2 1 1 -2 0 2 3 3 3 3 3 3 3 2 3 3 3 3 2 3 3 3 4 3 3 3 1 4 -1 7 9 10 10 10 9
2 3 3 3 3 4 4 3 3 3 2 2 1 1 1 -2 -0 2 2 2 2 2 2 2 3 3 3 3 0 -2 -3 -1 2 3 3 4 3 -0 0 3 6 8 10 9 9 9 9
1 2 2 3 3 3 3 3 3 3 3 2 1 1 0 -1 -1 2 1 2 -0 -1 -1 2 2 3 3 -4 -4 -3 -3 0 1 5 5 4 4 3 0 4 2 7 8 10 10 8 8
2 2 2 3 3 3 3 3 3 3 3 2 2 1 1 0 -1 0 -1 -1 1 -0 -2 -2 0 0 1 -6 0 -3 1 5 4 3 4 5 4 4 3 3 5 8 8 9 8 7 6
2 2 2 2 3 3 3 2 3 3 3 2 1 1 1 0 -1 1 1 1 -0 0 -1 -2 -2 -3 -6 -3 -2 -2 1 0 3 5 5 5 3 3 4 2 2 8 8 7 7 6 7
1 1 2 2 2 2 2 2 2 2 3 2 1 2 2 1 -0 1 1 2 1 1 1 -1 -2 0 -0 -1 -4 -3 -2 -2 2 2 6 5 5 5 4 5 6 8 7 7 7 7 8

GFSGBSN_925_temp_258.txt.gz
Temp
6 5 5 5 5 5 5 5 5 5 5 5 5 5 5 5 5 6 6 7 8 8 9 9 9 9 10 16 14 11 11 11 13 14 16 17 18 19 19 21 21 21 23 24 25 25 24
5 5 5 5 5 5 5 5 5 5 5 5 5 5 5 5 6 7 8 8 8 9 9 10 8 8 11 15 11 11 10 11 13 14 15 16 16 16 16 18 19 22 21 21 22 23 23
6 5 5 5 5 5 5 5 5 5 5 5 5 5 5 6 7 8 8 9 9 9 9 9 8 8 14 12 11 11 11 11 12 13 15 14 14 16 17 18 19 18 18 21 22 23 22
6 5 5 5 5 5 5 5 5 5 5 5 5 5 5 6 7 8 9 9 8 8 8 8 8 9 13 10 11 12 12 13 12 12 13 13 13 15 16 18 18 19 20 20 23 25 24
5 5 5 5 5 5 5 5 5 5 4 4 4 4 5 6 8 9 10 9 9 8 8 7 9 11 13 11 13 11 11 12 12 12 13 13 14 16 16 16 18 19 19 21 22 24 23
5 5 5 5 5 5 5 5 4 4 4 4 4 4 5 6 7 9 10 9 9 8 8 9 10 13 14 13 12 11 11 10 12 13 14 15 15 15 16 17 16 19 19 20 20 22 22
5 4 4 4 5 5 5 4 4 4 4 4 4 4 5 6 7 8 8 10 13 14 11 10 11 11 13 12 11 13 11 12 13 14 14 14 15 15 16 17 17 17 17 17 19 20 20
5 4 4 4 4 4 4 4 4 4 4 4 4 4 5 6 7 7 8 9 7 6 11 10 10 10 10 10 13 14 12 13 13 13 13 14 13 15 15 15 15 15 15 16 18 19 19
5 5 5 4 4 4 5 4 4 4 4 4 4 4 5 6 7 6 7 6 5 5 11 12 12 13 13 12 13 14 13 13 13 13 13 12 14 14 13 14 14 15 15 15 16 17 17
5 5 5 5 4 5 5 5 4 4 4 4 4 4 5 7 7 5 7 5 5 5 13 12 13 13 14 13 13 13 12 12 13 12 13 13 14 13 13 13 13 13 16 15 15 15 15
5 5 5 4 4 5 5 4 4 4 4 4 4 4 4 5 6 8 6 5 5 6 13 11 13 13 14 13 13 14 13 13 12 13 12 12 13 13 13 13 14 13 15 14 13 14 15
5 5 5 4 5 5 4 4 4 4 4 4 5 4 4 5 5 5 5 5 6 10 10 11 12 12 12 12 13 13 13 13 13 11 13 11 13 13 13 13 14 14 13 14 14 14 13
5 5 4 4 4 4 4 4 4 4 4 5 5 5 5 4 7 4 4 8 9 11 10 10 10 11 11 11 11 12 11 11 9 8 11 13 14 13 12 13 15 14 12 12 13 13 13
4 4 4 4 4 4 4 4 4 4 4 5 5 5 5 4 4 4 7 9 11 8 10 10 10 11 10 10 11 10 10 10 9 8 9 10 10 12 13 12 12 13 12 10 10 14 16
4 4 4 4 5 4 4 4 4 4 4 5 6 5 5 4 5 5 9 9 8 10 9 9 11 10 10 10 9 10 10 9 8 8 7 8 9 12 13 14 13 12 11 12 10 13 12
4 4 4 4 4 4 4 4 4 4 4 5 6 7 6 4 5 7 8 7 9 9 9 9 9 9 9 10 9 10 9 9 8 9 8 8 7 12 13 14 14 11 12 10 11 10 11
4 4 4 4 4 5 4 4 4 4 4 5 6 9 5 5 5 7 7 7 8 8 9 8 9 9 9 8 9 9 9 10 8 8 9 8 7 10 12 11 10 11 10 10 9 10 10
4 4 4 4 4 4 4 4 4 4 5 5 7 6 5 5 7 4 6 7 6 8 9 8 8 8 9 9 9 9 8 9 10 9 7 8 6 7 10 12 11 11 9 9 8 9 10
4 4 4 4 4 4 4 4 4 4 5 5 6 7 5 5 6 5 7 7 7 8 8 8 8 9 9 8 7 8 9 10 9 8 8 7 7 6 9 11 9 7 7 7 7 8 9
4 4 4 4 4 4 4 4 4 4 4 5 6 5 6 6 7 7 7 7 7 7 7 8 8 8 8 8 8 7 8 9 8 8 8 7 6 6 7 7 7 6 7 7 7 7 10
4 4 4 4 4 4 4 4 4 4 4 5 5 3 5 5 4 7 7 6 7 6 7 8 8 8 7 6 7 7 8 8 8 9 8 7 5 6 6 7 8 8 8 8 8 9 8
4 4 4 4 4 4 4 4 4 3 3 5 4 4 4 6 6 6 6 6 6 7 6 7 7 7 7 5 5 4 6 6 7 8 7 7 5 6 6 8 8 8 10 10 11 12 12
3 3 4 4 4 4 4 4 3 3 4 4 4 3 6 4 6 5 6 7 6 6 7 7 7 6 6 7 7 7 7 6 6 6 6 6 5 5 5 8 8 6 9 11 12 13 12
2 3 3 4 4 4 4 4 3 3 3 4 4 4 4 5 6 6 6 6 6 7 6 7 7 6 7 7 7 7 7 7 8 8 8 5 5 4 5 6 5 10 13 13 12 12 10
2 1 3 3 4 4 4 4 3 3 3 4 3 3 3 4 6 6 6 6 6 6 6 6 6 6 6 5 4 4 5 4 6 9 9 8 5 5 5 7 9 10 10 9 11 11 9
1 1 2 3 4 4 3 3 3 3 3 3 2 2 1 3 6 6 6 6 6 5 5 5 6 6 5 4 3 4 5 5 6 7 9 8 7 6 6 6 7 8 11 12 13 11 9
1 1 2 3 3 3 3 3 3 3 3 2 2 2 1 2 6 6 5 5 6 5 4 4 4 4 4 3 4 5 6 7 6 5 6 7 5 5 6 6 9 11 11 12 10 9 10
1 1 2 2 2 3 3 3 3 3 2 2 3 2 1 2 5 5 6 5 5 4 3 3 4 2 2 3 4 5 5 7 6 8 8 7 7 6 6 6 7 11 10 9 10 11 10
1 2 2 2 2 2 3 3 3 3 2 2 2 1 1 1 2 3 4 4 5 6 5 3 4 4 4 3 4 4 5 5 6 6 9 7 8 7 7 9 11 11 10 11 11 10 11